Sulphur, LA

2:47 AM CDT on July 24, 2016 (GMT -0500)
Sulphur

Weather History for KUXL - November, 2012

Change the Weather History Date:

Sunday, November 11, 2012

  Actual Average (KLCH) Record (KLCH)
Temperature  
Mean Temperature 71 °F 62 °F  
Max Temperature 73 °F 73 °F 88 °F (1916)
Min Temperature 69 °F 52 °F 29 °F (1914)
Degree Days  
Heating Degree Days 0 5  
Month to date heating degree days 40  
Since 1 July heating degree days 76  
Cooling Degree Days 6 2  
Month to date cooling degree days 29  
Year to date cooling degree days 2762  
Growing Degree Days 21 (Base 50)    
Moisture  
Dew Point 69 °F    
Average Humidity 92    
Maximum Humidity 100    
Minimum Humidity 78    
Precipitation  
Precipitation 0.39 in 0.15 in 3.48 in (1966)
Month to date precipitation 1.75  
Year to date precipitation 50.13  
Snow  
Snow 0.00 in 0.00 in 0.00 in ()
Month to date snowfall 0.0  
Since 1 July snowfall 0.0  
Since 1 September snowfall 0.0  
Snow Depth -    
Sea Level Pressure  
Sea Level Pressure 30.02 in    
Wind  
Wind Speed 10 mph (SE)    
Max Wind Speed 20 mph    
Max Gust Speed 26 mph    
Visibility 8 miles    
Events Rain , Thunderstorm    
T = Trace of Precipitation, MM = Missing Value Source: NWS Daily Summary

Daily Weather History Graph

Daily Weather History Graph

Search for Another Location

Airport or City:

Trip Planner

Search our weather history database for the weather conditions in past years. The results will help you decide how hot, cold, wet, or windy it might be!

Date:

Astronomy

Nov. 11, 2012 Rise Set
Actual Time 6:35 AM CST 5:18 PM CST
Civil Twilight 6:10 AM CST 5:44 PM CST
Nautical Twilight 5:41 AM CST 6:12 PM CST
Astronomical Twilight 5:13 AM CST 6:41 PM CST
Moon 3:59 AM CST (11/11) 3:36 PM CST (11/11)
Length of Visible Light 11h 33m
Length of Day
10h 43m
Waning Crescent, 7% of the Moon is Illuminated
Nov 11
Waning Crescent
Nov 13
New
Nov 20
First Quarter
Nov 28
Full
Dec 6
Last Quarter

Hourly Weather History & Observations

Time (CST) Temp. Dew Point Humidity Pressure Visibility Wind Dir Wind Speed Gust Speed Precip Events Conditions
12:15 AM 71.6 °F 64.4 °F 78% 30.05 in 10.0 mi SE 11.5 mph 19.6 mph N/A   Clear
12:35 AM 71.6 °F 64.4 °F 78% 30.04 in 10.0 mi SE 11.5 mph 18.4 mph N/A   Clear
12:55 AM 69.8 °F 64.4 °F 83% 30.03 in 10.0 mi ESE 11.5 mph - N/A   Clear
1:15 AM 69.8 °F 64.4 °F 83% 30.03 in 10.0 mi SE 11.5 mph 17.3 mph N/A   Clear
1:35 AM 69.8 °F 64.4 °F 83% 30.02 in 10.0 mi ESE 11.5 mph - N/A   Scattered Clouds
1:55 AM 69.8 °F 64.4 °F 83% 30.01 in 10.0 mi ESE 11.5 mph 16.1 mph N/A   Clear
2:15 AM 69.8 °F 64.4 °F 83% 30.01 in 10.0 mi ESE 11.5 mph 17.3 mph N/A   Clear
2:35 AM 69.8 °F 64.4 °F 83% 30.00 in 10.0 mi ESE 11.5 mph 17.3 mph N/A   Clear
2:55 AM 69.8 °F 64.4 °F 83% 30.00 in 10.0 mi ESE 10.4 mph - N/A   Clear
3:15 AM 69.8 °F 64.4 °F 83% 30.00 in 10.0 mi ESE 10.4 mph - N/A   Clear
3:35 AM 69.8 °F 66.2 °F 88% 29.99 in 10.0 mi ESE 10.4 mph - N/A   Clear
3:55 AM 69.8 °F 66.2 °F 88% 29.99 in 10.0 mi ESE 10.4 mph - N/A   Mostly Cloudy
4:15 AM 69.8 °F 66.2 °F 88% 30.00 in 10.0 mi ESE 8.1 mph - N/A   Overcast
4:35 AM 69.8 °F 66.2 °F 88% 30.00 in 10.0 mi ESE 9.2 mph - N/A   Mostly Cloudy
4:55 AM 69.8 °F 68.0 °F 94% 30.00 in 10.0 mi ESE 10.4 mph - N/A   Mostly Cloudy
5:35 AM 69.8 °F 66.2 °F 88% 29.99 in 10.0 mi ESE 12.7 mph 16.1 mph N/A   Overcast
5:55 AM 69.8 °F 66.2 °F 88% 30.00 in 10.0 mi ESE 9.2 mph 17.3 mph N/A   Overcast
6:15 AM 69.8 °F 66.2 °F 88% 30.01 in 10.0 mi ESE 9.2 mph - N/A   Overcast
6:35 AM 69.8 °F 66.2 °F 88% 30.01 in 10.0 mi East 8.1 mph - N/A   Overcast
6:55 AM 69.8 °F 66.2 °F 88% 30.01 in 10.0 mi ESE 6.9 mph - N/A   Overcast
7:35 AM 69.8 °F 68.0 °F 94% 30.02 in 7.0 mi East 6.9 mph - N/A   Overcast
7:55 AM 71.6 °F 68.0 °F 88% 30.03 in 7.0 mi ESE 8.1 mph - N/A   Overcast
8:15 AM 71.6 °F 68.0 °F 88% 30.04 in 3.0 mi SE 15.0 mph 20.7 mph N/A Rain Light Rain
8:35 AM 69.8 °F 69.8 °F 100% 30.05 in 2.5 mi SE 9.2 mph 17.3 mph 0.03 in Rain Rain
8:55 AM 71.6 °F 69.8 °F 94% 30.05 in 5.0 mi ESE 8.1 mph - 0.04 in   Overcast
9:15 AM 71.6 °F 69.8 °F 94% 30.05 in 5.0 mi SE 8.1 mph - N/A Rain Light Rain
9:35 AM 71.6 °F 69.8 °F 94% 30.05 in 3.0 mi SE 10.4 mph - 0.01 in Rain Rain
9:55 AM 71.6 °F 69.8 °F 94% 30.06 in 3.0 mi SE 9.2 mph - 0.04 in Rain Rain
10:15 AM 69.8 °F 69.8 °F 100% 30.06 in 1.8 mi SSW 5.8 mph - 0.05 in Rain Heavy Rain
10:35 AM 69.8 °F 69.8 °F 100% 30.07 in 1.2 mi South 12.7 mph 17.3 mph 0.23 in Rain Heavy Rain
10:55 AM 69.8 °F 69.8 °F 100% 30.05 in 7.0 mi South 8.1 mph - 0.24 in Rain Light Rain
11:15 AM 71.6 °F 69.8 °F 94% 30.05 in 10.0 mi SSE 8.1 mph - N/A   Overcast
11:35 AM 71.6 °F 69.8 °F 94% 30.04 in 10.0 mi SE 11.5 mph - N/A   Overcast
11:55 AM 71.6 °F 71.6 °F 100% 30.04 in 7.0 mi SE 16.1 mph 19.6 mph N/A   Overcast
12:15 PM 71.6 °F 69.8 °F 94% 30.02 in 10.0 mi SE 12.7 mph 18.4 mph N/A   Overcast
12:35 PM 71.6 °F 69.8 °F 94% 30.01 in 5.0 mi SE 13.8 mph 19.6 mph N/A   Drizzle
12:55 PM 71.6 °F 69.8 °F 94% 30.00 in 7.0 mi SE 12.7 mph 17.3 mph 0.01 in   Overcast
1:15 PM 71.6 °F 69.8 °F 94% 30.01 in 2.5 mi South 19.6 mph 25.3 mph 0.04 in Rain Rain
1:35 PM 71.6 °F 69.8 °F 94% 29.99 in 5.0 mi South 9.2 mph - 0.05 in Rain Light Rain
1:55 PM 71.6 °F 69.8 °F 94% 29.99 in 10.0 mi SE 9.2 mph - 0.05 in   Overcast
2:15 PM 73.4 °F 71.6 °F 94% 29.99 in 10.0 mi SSE 9.2 mph - N/A   Overcast
2:35 PM 73.4 °F 71.6 °F 94% 29.99 in 7.0 mi SE 11.5 mph - N/A   Overcast
2:55 PM 73.4 °F 71.6 °F 94% 29.98 in 5.0 mi SE 6.9 mph - N/A   Overcast
3:15 PM 73.4 °F 71.6 °F 94% 29.98 in 7.0 mi South 12.7 mph 18.4 mph N/A   Overcast
3:35 PM 73.4 °F 71.6 °F 94% 29.98 in 5.0 mi SSE 16.1 mph 23.0 mph N/A Rain Rain
3:55 PM 71.6 °F 71.6 °F 100% 29.98 in 7.0 mi SSE 17.3 mph 26.5 mph N/A   Overcast
4:15 PM 71.6 °F 68.0 °F 88% 29.98 in 10.0 mi SSE 13.8 mph - N/A Rain Rain
4:35 PM 69.8 °F 68.0 °F 94% 29.98 in 10.0 mi SE 8.1 mph - 0.01 in   Overcast
4:55 PM 69.8 °F 69.8 °F 100% 30.00 in 10.0 mi SE 10.4 mph - 0.01 in   Mostly Cloudy
5:15 PM 71.6 °F 69.8 °F 94% 30.00 in 7.0 mi SE 10.4 mph - N/A   Overcast
5:35 PM 71.6 °F 69.8 °F 94% 30.00 in 7.0 mi SE 8.1 mph - N/A   Overcast
5:55 PM 71.6 °F 69.8 °F 94% 30.01 in 10.0 mi SE 8.1 mph - N/A Thunderstorm Overcast
6:15 PM 71.6 °F 69.8 °F 94% 30.01 in 7.0 mi SE 8.1 mph - N/A   Overcast
6:35 PM 71.6 °F 69.8 °F 94% 30.02 in 7.0 mi SE 5.8 mph - N/A   Overcast
6:55 PM 71.6 °F 69.8 °F 94% 30.03 in 7.0 mi SSE 3.5 mph - N/A   Overcast
7:15 PM 71.6 °F 69.8 °F 94% 30.04 in 7.0 mi SE 5.8 mph - N/A   Overcast
7:35 PM 71.6 °F 69.8 °F 94% 30.04 in 10.0 mi SE 5.8 mph - N/A   Overcast
7:55 PM 71.6 °F 69.8 °F 94% 30.04 in 7.0 mi SSE 6.9 mph - N/A   Overcast
8:15 PM 71.6 °F 69.8 °F 94% 30.04 in 10.0 mi SE 9.2 mph - N/A   Overcast
8:35 PM 71.6 °F 69.8 °F 94% 30.05 in 7.0 mi SE 6.9 mph - N/A   Mostly Cloudy
8:55 PM 71.6 °F 69.8 °F 94% 30.06 in 7.0 mi SE 4.6 mph - N/A   Mostly Cloudy
9:15 PM 71.6 °F 69.8 °F 94% 30.06 in 7.0 mi SE 6.9 mph - N/A   Overcast
9:35 PM 71.6 °F 69.8 °F 94% 30.06 in 7.0 mi ESE 5.8 mph - N/A   Scattered Clouds
9:55 PM 71.6 °F 69.8 °F 94% 30.07 in 7.0 mi SE 4.6 mph - N/A   Clear
10:15 PM 71.6 °F 69.8 °F 94% 30.08 in 7.0 mi SSE 3.5 mph - N/A   Mostly Cloudy
10:35 PM 69.8 °F 69.8 °F 100% 30.08 in 5.0 mi SE 4.6 mph - N/A   Scattered Clouds
10:55 PM 71.6 °F 69.8 °F 94% 30.08 in 7.0 mi SE 5.8 mph - N/A   Scattered Clouds
11:15 PM 69.8 °F 69.8 °F 100% 30.08 in 5.0 mi SE 3.5 mph - N/A   Scattered Clouds
11:35 PM 69.8 °F 69.8 °F 100% 30.08 in 5.0 mi SE 5.8 mph - N/A   Clear
11:55 PM 69.8 °F 69.8 °F 100% 30.08 in 3.0 mi Calm Calm - N/A   Mist